Regional Weather Roundup
Issued by NWS

Home | Current Version | Previous Version | Graphics & Text | Print | Product List | Glossary On
Versions: 1 2 3 4 5 6 7 8 9 10 11 12 13 14 15 16 17 18 19 20 21 22 23 24 25 26 27 28 29 30 31 32 33 34 35 36 37 38 39 40 41 42 43 44 45 46 47 48 49 50
000
ASUS45 KBOU 270507
RWRCO

WEATHER ROUNDUP FOR COLORADO
NATIONAL WEATHER SERVICE DENVER/BOULDER CO
1100 PM MDT SAT JUL 26 2014

NOTE: "FAIR" INDICATES FEW OR NO CLOUDS BELOW 12000 FEET WITH NO
SIGNIFICANT WEATHER AND/OR OBSTRUCTIONS TO VISIBILITY.

COZ001>005-013-030-031-270600-
...NORTHWEST COLORADO...

CITY           SKY/WX    TMP DP  RH WIND       PRES   REMARKS
CRAIG          MOCLDY    59  51  75 E8        30.32R
HAYDEN         MOCLDY    63  46  55 E14       30.34S
MEEKER         CLOUDY    64  52  64 E5        30.33S
MOUNT WERNER   NOT AVBL
STEAMBOAT SPGS MOCLDY    56  50  80 CALM      30.38S
WALDEN         CLEAR     50  41  71 SE6       30.46S
$$

COZ006>008-011-270600-
...WEST CENTRAL VALLEYS...

CITY           SKY/WX    TMP DP  RH WIND       PRES   REMARKS
GRAND JUNCTION MOCLDY    78  49  35 SE3       30.17S
MONTROSE       MOCLDY    78  49  35 S5        30.26R
EAGLE          MOCLDY    59  57  94 E3        30.43S
RIFLE          CLOUDY    67  56  67 W5        30.29S
DELTA          MOCLDY    82  47  29 W7        30.21S
NUCLA          MOCLDY    79  43  27 SE7       30.27S
$$

COZ017>023-064>068-270600-
...SOUTHWEST COLORADO...

CITY           SKY/WX    TMP DP  RH WIND       PRES   REMARKS
DURANGO        PTCLDY    73  45  36 NE12      30.28R
CORTEZ         CLEAR     71  47  42 NE5       30.22R
PAGOSA SPRINGS PTCLDY    70  44  38 NE6       30.40S
TELLURIDE      PTCLDY    63  46  55 SE3       30.51S
WOLF CREEK PAS NOT AVBL
$$

COZ009-010-012-014-032>034-037-058>063-270600-
...CENTRAL COLORADO...

CITY           SKY/WX    TMP DP  RH WIND       PRES   REMARKS
ASPEN          MOCLDY    60  46  59 SW7       30.44F
BUENA VISTA    PTCLDY    55  51  85 CALM      30.51F
COPPER MTN     PTCLDY    54  37  54 W6        30.77F
BERTHOUD PASS  CLOUDY    46  32  57 N3        30.81S
COTTONWOOD PAS PTCLDY    59  46  63 W5        30.64S
GUNNISON       PTCLDY    63  50  63 N7        30.49R
KREMMLING      PTCLDY    57  46  67 CALM      30.46S
LEADVILLE      PTCLDY    49  44  83 CALM      30.62F
MONARCH PASS   MOCLDY    46  43  87 E20       30.86F
SALIDA         PTCLDY   N/A N/A N/A SW6       30.55F
SUNLIGHT       MOCLDY    52  45  76 E3        30.68F
WILKERSON PASS NOT AVBL
$$

COZ069>075-270600-
...SAN LUIS VALLEY/SANGRE DE CRISTO MOUNTAINS...

CITY           SKY/WX    TMP DP  RH WIND       PRES   REMARKS
ALAMOSA        MOCLDY    65  50  58 NW10      30.42R
LA VETA PASS   CLOUDY    54  45  71 E13       30.65S
SAGUACHE       MOCLDY    63  50  63 NW10      30.46S
$$

COZ035-036-038>040-270600-
...NORTHERN COLORADO FRONT RANGE...

CITY           SKY/WX    TMP DP  RH WIND       PRES   REMARKS
DENVER INTL AP MOCLDY    72  51  47 SW15      30.22S
DMNS CITY PARK   N/A     69  54  58 S9G17     30.21F
AURORA         CLOUDY    68  54  59 SW17      30.25F
FRONT RANGE AP NOT AVBL
ERIE MUNI ARPT CLOUDY    72  53  51 S6        30.18F
BOULDER MUN AP CLOUDY    72  50  46 SW7       30.20S
CENTENNIAL     CLOUDY    68  51  54 S17G24    30.27F
BROOMFIELD     NOT AVBL
FORT COLLINS   MOCLDY    70  52  52 E6        30.20R
LONGMONT       MOCLDY    66  56  68 CALM      30.20S
$$

COZ041-046-047-076>085-087-088-270600-
...PIKES PEAK/PALMER DIVIDE AND SOUTHERN FOOTHILLS...

CITY           SKY/WX    TMP DP  RH WIND       PRES   REMARKS
COLO. SPRINGS  MOCLDY    66  54  65 NW9       30.35F
A. F. ACADEMY  MOCLDY    59  58  96 N5        30.37F
ELLICOTT       CLOUDY    67  52  58 N7        30.32F
FALCON         MOCLDY    60  55  85 NW6       30.39F
FORT CARSON    CLOUDY    69  53  57 N12       30.32S
LIMON          CLOUDY    70  52  52 S5        30.26F
MONUMENT HILL  MOCLDY    57  52  82 SW9       30.38F
TRINIDAD       CLOUDY    70  59  68 NW8       30.31R
$$

COZ042>045-048>051-090-091-270600-
...NORTHEAST COLORADO...

CITY           SKY/WX    TMP DP  RH WIND       PRES   REMARKS
GREELEY ARPT   CLOUDY    64  55  72 N3        30.19S
AKRON          CLOUDY    71  62  73 E6        30.22R
BURLINGTON     CLOUDY    74  62  66 NE8       30.18R
WRAY             N/A     74  64  73 NE5       30.15F
STERLING       CLOUDY    73  66  78 S5        30.18R
HOLYOKE        MOCLDY    70  63  78 E6        30.16S
FORT MORGAN    CLOUDY    68  56  65 E5        30.20S
$$

COZ086-089-092>099-270600-
...SOUTHEAST COLORADO...

CITY           SKY/WX    TMP DP  RH WIND       PRES   REMARKS
PUEBLO         CLOUDY    73  57  57 NW9       30.23F
LA JUNTA       CLOUDY    76  60  57 E6        30.19S
LAMAR          TSTM      71  66  84 S9        30.15R
SPRINGFIELD      N/A     66  62  87 NW28G38   30.20R
$$



USA.gov is the U.S. government's official web portal to all federal, state and local government web resources and services.